Погода в Троицке

Погода в Троицке : погода сейчас, прогноз погоды и архив. Всё, что Вы хотите узнать о погоде в Троицке!

Хотите узнать прогноз погоды в Троицке? Тогда Вам сюда: Погода в Троицке

Поиск расширенной информации на нашем сайте:

Другие новости

Новости СМИ2

Главная страница сайта

Новости сайта

03.07.2017

Напоминаем, что на нашем специализированном сайте Метеоцентр.Азия вы можете получить высокодетализированные автоматические прогнозы погоды по пунктам России, СНГ и мира в авиационном формате (включающие направление и скорость ветра, видимость, явления погоды, количество и форму облачности, нижнюю и верхнюю границу облачности).


Погода в Троицке - сегодня

Время (UTC), дата Ветер
(°,м/с) 
Видим.   Явления Облачность Т
(°С)
Тd
(°С)
f(%) Тe
(°С)
Pmin
(гПа)
dP
(гПа)
Po
(мм)
O2
(г/м3)
Тmin Tmax R s Состояние
почвы
21 11.12.17 320 (СЗ) 4000 м  дымка{снег}  10/10 600 м 
[Sc]
-12.7 -15.3 81 -13  1034.5  757  321           
00 12.12.17 300 (СЗ) 4000 м  дымка{снег}  10/10 600 м 
[Sc]
-12 -14.6 81 -12  1035.1  0.6  757  320           
03 12.12.17 060 (СВ) 4000 м  дымка  10/10 600 м 
[Sc]
-11.6 -14.1 82 -11  1036.1  1.1  758  320  -14.4    0.2  11  равномерный
сухой снег
100% 
06 12.12.17 тихо ()   4000 м  в посл. час снег  10/0 средняя 
[As trans]
-12.9 -15.2 83 -13  1037.4  1.1  759  322           
09 12.12.17 230 (ЮЗ) 10 км    5/0 средняя, верхняя 
[Ac lent|Ci sp]
-10.9 -15.1 71 -11  1037.8  0.5  759  320           
12 12.12.17 240 (ЮЗ) 10 км    1/1 600 м 
[Sc]
-14.7 -17.1 82 -15  1039.3  1.2  760  325           
15 12.12.17 190 (Ю) 10 км    1/0 верхняя 
[Ci fib]
-18 -20.3 82 -18  1040.6  0.9  761  330    -10.4  0.2     
18 12.12.17 160 (Ю) 10 км    10/0 верхняя 
[Cs]
-19.4 -21.9 81 -20  1041.5  0.8  761  332           
21 12.12.17 140 (ЮВ) 10 км    10/0 верхняя 
[Cs]
-21.1 -23.8 79 -21  1042.4  0.7  762  334           
00 13.12.17 140 (ЮВ) 4000 м  дымка  10/0 средняя 
[As trans]
-22.3 -25.2 77 -23  1043.1  0.5  762  336           
03 13.12.17 180 (Ю) 4000 м  дымка  10/0 средняя 
[As trans]
-22.8 -25.8 76 -23  1043.7  0.5  763  337  -23.2      10  равномерный
сухой снег
100% 
06 13.12.17 150 (ЮВ) 2000 м  дымка  10/10 300 м 
[St]
-21.1 -23.9 78 -21  1044.3  0.7  763  335           
09 13.12.17 180 (Ю) 4000 м  дымка  10/0 верхняя 
[Cs]
-17.2 -19.7 81 -20  1043.6  -0.2  763  330           
12 13.12.17 230 (ЮЗ) 4000 м  дымка  10/0 верхняя 
[Cs]
-18.7 -21.4 79 -19  1043.9  0.2  763  332           
15 13.12.17 170 (Ю) 4000 м  дымка  3/3 600 м 
[Sc]
-20.4 -23.2 78 -23  1044.5  0.3  763  334    -16.8       
18 13.12.17 160 (Ю) 4000 м  дымка  3/0 верхняя 
[Ci fib]
-21.5 -24.4 77 -22  1044.5  -0.1  763  336           
21 13.12.17 210 (ЮЗ) 4000 м  дымка  10/10 300 м 
[St]
-22 -25 77 -22  1044.5  763  336           
00 14.12.17 200 (Ю) 4000 м  дымка  10/10 300 м 
[St]
-21.9 -24.9 77 -22  1044.8  0.3  764  336           
03 14.12.17 140 (ЮВ) 4000 м  дымка  8/0 верхняя 
[Ci fib]
-22.9 -25.9 76 -23  1044.8  -0.2  763  338  -22.9      10  равномерный
сухой снег
100% 
06 14.12.17 170 (Ю) 4000 м  дымка  10/0 верхняя 
[Cs]
-22.4 -25.4 76 -25  1045.2  0.5  764  337  -23.3         
09 14.12.17 180 (Ю) 4000 м  дымка  10/0 верхняя 
[Cs]
-18.9 -21.6 79 -23  1044  -0.8  763  332           
12 14.12.17 180 (Ю) 4000 м  дымка  10/0 верхняя 
[Cs]
-19.6 -22.3 79 -22  1044.1  763  333           
15 14.12.17 160 (Ю) 4000 м  дымка  10/10 300 м 
[St]
-21.3 -24.2 77 -24  1044.4  0.2  763  335    -18.7       
18 14.12.17 140 (ЮВ) 4000 м  дымка  10/10 300 м 
[St]
-23.5 -26.6 76 -27  1044.2  -0.5  763  338           
21 14.12.17 150 (ЮВ) 4000 м  дымка  10/10 300 м 
[St]
-23.4 -26.6 75 -26  1043.9  -0.2  763  338           
Время (UTC), дата Ветер
(°,м/с) 
Видим.   Явления Облачность Т
(°С)
Тd
(°С)
f(%) Тe
(°С)
Pmin
(гПа)
dP
(гПа)
Po
(мм)
O2
(г/м3)
Тmin Tmax R s Состояние
почвы

Для получения пояснительной информации подведите курсор к названию столбца.

ПОГОДА в Троицке - архив

Всё, что Вы хотите узнать о погоде в Троицке - удобно и подробно!

Выберите нужную дату (начиная с 1 января 2015* года) и нажмите кнопку "Найти".
Будут отображены архивные сводки погоды по пункту Троицк, начиная с указанной даты.


Отображать данные в формате CSV (для использования в таблицах Excel)


Внимание! Наш архив погоды предназначен исключительно для личного некоммерческого использования в познавательных целях. Если Вам необходимы официальные справки о состоянии погоды (для производственных, юридических, коммерческих и т.п. целей), обращайтесь в органы Росгидромета.

*Примечание: данная дата относится к архиву по метеостанциям СССР (Россия, СНГ, Балтия).
Архив по метеостанциям Зарубежной Европы и Азии (кроме Китая) хранится 10 дней, по другим регионам земного шара (Китай, Африка, Америка, Австралия, Океания) - 1 день.

Троицк - район местоположения метеостанции


Название, широта, долгота, высота метеостанции:
Троицк 54.1°ш. 61.6°д. 192 м над ур. моря [Российская Федерация]

Дополнительная информация

В oтличие oт бoльшинства пoгoдных сайтoв мы публикуем пoдрoбную метеoинфoрмацию в детальнoм прoфессиoнальнoм фoрмате.

Характеристики температуры и влажнoсти вoздуха измеряются на высoте 2 м в тени вдали oт зданий и деревьев.
Скoрoсть ветра измеряется на высoте 10 м (на урoвне рoста челoвека скoрoсть ветра ниже в 1.5-2 раза). Если метеoстанция нахoдится в гoрoде или в лесу, тo скoрoсть ветра занижена на 2-4 м/с пo сравнению с oткрытым местoм. Скoрoсть ветра над акватoриями крупных рек и oзёр, а также на вершинах хoлмoв на 2-5 м/с выше, чем в oбычных услoвиях.
Атмoсфернoе давление в разных тoчках местнoсти мoжет значительнo oтличаться oт давления на метеoстанции, в зависимoсти oт услoвий рельефа (при пoдъёме на 10 м давление пoнижается примернo на 1 мм рт.ст.).